Location: Middle Street
(51.7167°N, 0.0333°E)
Time: 03:05:33
(UTC+00:00)

Cosmos 2227 - Pass Details

Date: 20 January 2021
Orbit: 832 x 863 km, 71.0° (Epoch: 24 February)

Event Time Altitude Azimuth Distance (km) Brightness Sun altitude
Rises 17:58:31 0° 216° (SW) 3,378 8.2 -13.7°
Reaches altitude 10° 18:00:57 10° 219° (SW) 2,451 7.4 -14.0°
Maximum altitude 18:06:34 71° 303° (WNW) 897 4.4 -14.9°
Drops below altitude 10° 18:12:16 10° 28° (NNE) 2,486 6.3 -15.7°
Enters shadow 18:12:22 10° 28° (NNE) 2,520 6.3 -15.7°
